N5LOW Weather Reports


time (UTC)temp
C
wind
direction
speed
KPH
gust
KPH
rain 1hr
cm
rain 24hr
cm
rain mn
cm
humidity
%
barometer
mb
20211017153502 -17 81 3.2 3.2 0.00 0.00 0.00 1027.7
20211017153001 -17 87 3.2 4.8 0.00 0.00 0.00 1027.6
20211017152502 -17 30 6.4 6.4 0.00 0.00 0.00 1027.8
20211017152002 -17 18 3.2 6.4 0.00 0.00 0.00 1027.7
20211017151502 -17 19 3.2 4.8 0.00 0.00 0.00 1027.5
20211017151002 -17 94 3.2 4.8 0.00 0.00 0.00 1027.6
20211017150502 -17 79 6.4 8.0 0.00 0.00 0.00 1027.8
20211017150002 -17 40 4.8 8.0 0.00 0.00 0.00 1027.4
20211017145502 -17 200 3.2 4.8 0.00 0.00 0.00 1027.6
20211017145002 -17 98 4.8 8.0 0.00 0.00 0.00 1027.5
20211017144502 -17 158 0.0 0.0 0.00 0.00 0.00 1027.6
20211017144002 -17 319 9.7 11.3 0.00 0.00 0.00 1027.5
20211017143502 -17 26 6.4 9.7 0.00 0.00 0.00 1027.5
20211017143003 -17 50 3.2 4.8 0.00 0.00 0.00 1027.3
20211017142502 -17 39 4.8 6.4 0.00 0.00 0.00 1027.3
20211017142002 -17 84 3.2 4.8 0.00 0.00 0.00 1027.4
20211017141502 -17 73 3.2 3.2 0.00 0.00 0.00 1027.4
20211017141002 -17 54 3.2 4.8 0.00 0.00 0.00 1027.3
20211017140502 -17 349 6.4 11.3 0.00 0.00 0.00 1027.2
20211017140003 -17 83 4.8 6.4 0.00 0.00 0.00 1027.2
20211017135502 -17 54 6.4 8.0 0.00 0.00 0.00 1027.3
20211017135003 -17 33 3.2 4.8 0.00 0.00 0.00 1027.2
20211017134501 -17 50 6.4 8.0 0.00 0.00 0.00 1026.9
20211017134002 -17 14 6.4 8.0 0.00 0.00 0.00 1027.2
20211017133502 -17 33 4.8 6.4 0.00 0.00 0.00 1027.0
20211017133002 -17 52 3.2 4.8 0.00 0.00 0.00 1027.1
20211017132502 -17 69 3.2 4.8 0.00 0.00 0.00 1026.9
20211017132002 -17 99 6.4 9.7 0.00 0.00 0.00 1026.8
20211017131502 -17 15 4.8 4.8 0.00 0.00 0.00 1027.0
20211017131002 -17 69 0.0 0.0 0.00 0.00 0.00 1026.8
20211017130502 -17 45 1.6 3.2 0.00 0.00 0.00 1026.8
20211017130003 -17 77 0.0 0.0 0.00 0.00 0.00 1026.8
20211017125502 -17 58 1.6 3.2 0.00 0.00 0.00 1026.5
20211017125002 -17 95 0.0 0.0 0.00 0.00 0.00 1026.7
20211017124502 -17 74 0.0 0.0 0.00 0.00 0.00 1026.5
20211017124003 -17 98 0.0 0.0 0.00 0.00 0.00 1026.5
20211017123502 -17 98 0.0 0.0 0.00 0.00 0.00 1026.5
20211017123002 -17 95 0.0 0.0 0.00 0.00 0.00 1026.4
20211017122502 -17 81 0.0 0.0 0.00 0.00 0.00 1026.5
20211017122002 -17 93 0.0 0.0 0.00 0.00 0.00 1026.5
20211017121502 -17 96 0.0 0.0 0.00 0.00 0.00 1026.4
20211017121002 -17 87 0.0 0.0 0.00 0.00 0.00 1026.4
20211017120502 -17 77 1.6 3.2 0.00 0.00 0.00 1026.3
20211017120002 -17 98 0.0 0.0 0.00 0.00 0.00 1026.1
20211017115502 -17 91 0.0 0.0 0.00 0.00 0.00 1026.2
20211017115002 -17 96 0.0 0.0 0.00 0.00 0.00 1026.6
20211017114501 -17 98 0.0 0.0 0.00 0.00 0.00 1026.3
20211017114003 -17 358 3.2 4.8 0.00 0.00 0.00 1026.2
20211017113502 -17 96 0.0 0.0 0.00 0.00 0.00 1026.1
20211017113002 -17 100 0.0 0.0 0.00 0.00 0.00 1026.0
20211017112502 -17 96 0.0 0.0 0.00 0.00 0.00 1025.9
20211017112002 -17 95 0.0 0.0 0.00 0.00 0.00 1026.0
20211017111502 -17 97 0.0 0.0 0.00 0.00 0.00 1026.2
20211017111002 -17 100 0.0 0.0 0.00 0.00 0.00 1026.0
20211017110502 -17 92 1.6 3.2 0.00 0.00 0.00 1025.9
20211017110002 -17 95 0.0 0.0 0.00 0.00 0.00 1026.1
20211017105502 -17 71 1.6 3.2 0.00 0.00 0.00 1025.9
20211017105002 -17 73 1.6 3.2 0.00 0.00 0.00 1025.7
20211017104502 -17 99 0.0 0.0 0.00 0.00 0.00 1025.7
20211017104002 -17 93 0.0 0.0 0.00 0.00 0.00 1025.6
20211017103502 -17 78 0.0 0.0 0.00 0.00 0.00 1025.8
20211017103002 -17 98 0.0 0.0 0.00 0.00 0.00 1025.9
20211017102502 -17 96 0.0 0.0 0.00 0.00 0.00 1025.6
20211017102002 -17 84 0.0 0.0 0.00 0.00 0.00 1025.8
20211017101503 -17 96 0.0 0.0 0.00 0.00 0.00 1025.8
20211017101002 -17 83 0.0 0.0 0.00 0.00 0.00 1025.7
20211017100501 -17 98 3.2 4.8 0.00 0.00 0.00 1025.7
20211017100002 -17 96 0.0 0.0 0.00 0.00 0.00 1025.7
20211017095502 -17 82 1.6 3.2 0.00 0.00 0.00 1025.6
20211017095002 -17 2 3.2 4.8 0.00 0.00 0.00 1025.7
20211017094502 -17 15 1.6 3.2 0.00 0.00 0.00 1025.7
20211017094002 -17 92 1.6 3.2 0.00 0.00 0.00 1025.6
20211017093502 -17 15 4.8 6.4 0.00 0.00 0.00 1025.7
20211017093002 -17 89 1.6 3.2 0.00 0.00 0.00 1025.6
20211017092502 -17 83 1.6 3.2 0.00 0.00 0.00 1025.5
20211017092003 -17 20 4.8 6.4 0.00 0.00 0.00 1025.5
20211017091501 -17 1 3.2 6.4 0.00 0.00 0.00 1025.4
20211017091002 -17 81 3.2 4.8 0.00 0.00 0.00 1025.5
20211017090502 -17 88 1.6 3.2 0.00 0.00 0.00 1025.5
20211017090002 -17 68 3.2 4.8 0.00 0.00 0.00 1025.8
20211017085502 -17 101 1.6 3.2 0.00 0.00 0.00 1025.6
20211017085002 -17 11 4.8 6.4 0.00 0.00 0.00 1025.7
20211017084502 -17 55 0.0 0.0 0.00 0.00 0.00 1025.7
20211017084002 -17 355 3.2 4.8 0.00 0.00 0.00 1025.5
20211017083502 -17 39 4.8 4.8 0.00 0.00 0.00 1025.9
20211017083002 -17 85 4.8 8.0 0.00 0.00 0.00 1025.7
20211017082502 -17 31 6.4 9.7 0.00 0.00 0.00 1025.6
20211017082002 -17 349 4.8 8.0 0.00 0.00 0.00 1025.6
20211017081502 -17 66 6.4 9.7 0.00 0.00 0.00 1025.6
20211017081002 -17 347 6.4 9.7 0.00 0.00 0.00 1025.6
20211017080502 -17 47 3.2 4.8 0.00 0.00 0.00 1025.7
20211017080003 -17 96 4.8 4.8 0.00 0.00 0.00 1025.7
20211017075503 -17 31 8.0 9.7 0.00 0.00 0.00 1025.7
20211017075002 -17 64 3.2 4.8 0.00 0.00 0.00 1025.4
20211017074502 -17 32 4.8 6.4 0.00 0.00 0.00 1025.6
20211017074002 -17 43 4.8 6.4 0.00 0.00 0.00 1025.3
20211017073502 -17 19 4.8 8.0 0.00 0.00 0.00 1025.4
20211017073002 -17 91 1.6 3.2 0.00 0.00 0.00 1025.3
20211017072502 -17 344 8.0 9.7 0.00 0.00 0.00 1025.3
20211017072002 -17 46 3.2 4.8 0.00 0.00 0.00 1025.3
20211017071502 -17 19 9.7 11.3 0.00 0.00 0.00 1025.4
20211017071004 -17 95 1.6 3.2 0.00 0.00 0.00 1025.4
20211017070501 -17 53 3.2 4.8 0.00 0.00 0.00 1025.6
20211017070002 -17 100 1.6 3.2 0.00 0.00 0.00 1025.6
20211017065502 -17 55 3.2 4.8 0.00 0.00 0.00 1025.6
20211017065002 -17 82 3.2 3.2 0.00 0.00 0.00 1025.5
20211017064502 -17 95 0.0 0.0 0.00 0.00 0.00 1025.4
20211017064002 -17 65 3.2 4.8 0.00 0.00 0.00 1025.5
20211017063502 -17 39 4.8 6.4 0.00 0.00 0.00 1025.4
20211017063002 -17 59 3.2 4.8 0.00 0.00 0.00 1025.4
20211017062502 -17 76 1.6 3.2 0.00 0.00 0.00 1025.5
20211017062002 -17 71 1.6 3.2 0.00 0.00 0.00 1025.4
20211017061502 -17 57 1.6 3.2 0.00 0.00 0.00 1025.3
20211017061001 -17 56 3.2 4.8 0.00 0.00 0.00 1025.2
20211017060502 -17 356 6.4 8.0 0.00 0.00 0.00 1025.4
20211017060003 -17 70 1.6 3.2 0.00 0.00 0.00 1025.4
20211017055502 -17 353 4.8 6.4 0.00 0.00 0.00 1025.2
20211017055002 -17 89 3.2 4.8 0.00 0.00 0.00 1025.3
20211017054502 -17 73 4.8 4.8 0.00 0.00 0.00 1025.3
20211017054002 -17 72 1.6 3.2 0.00 0.00 0.00 1025.2
20211017053502 -17 20 1.6 3.2 0.00 0.00 0.00 1025.3
20211017052502 -17 82 3.2 4.8 0.00 0.00 0.00 1025.3
20211017052002 -17 72 1.6 3.2 0.00 0.00 0.00 1025.2
20211017051503 -17 60 3.2 4.8 0.00 0.00 0.00 1025.3
20211017051002 -17 80 1.6 3.2 0.00 0.00 0.00 1025.2
20211017050502 -17 45 3.2 4.8 0.00 0.00 0.00 1025.3
20211017050003 -17 338 3.2 4.8 0.00 0.00 0.00 1025.3
20211017045502 -17 83 3.2 4.8 0.00 0.00 0.00 1025.4
20211017045002 -17 352 4.8 8.0 0.00 0.00 0.00 1025.0
20211017044502 -17 105 1.6 3.2 0.00 0.00 0.00 1025.2
20211017043502 -17 21 4.8 6.4 0.00 0.00 0.00 1025.3
20211017043003 -17 17 6.4 8.0 0.00 0.00 0.00 1025.3
20211017042502 -17 16 6.4 8.0 0.00 0.00 0.00 1025.1
20211017042003 -17 50 4.8 6.4 0.00 0.00 0.00 1025.2
20211017041502 -17 342 4.8 6.4 0.00 0.00 0.00 1025.1
20211017041008 -17 72 4.8 6.4 0.00 0.00 0.00 1025.2
20211017040502 -17 51 4.8 8.0 0.00 0.00 0.00 1025.2
20211017040002 -17 67 6.4 8.0 0.00 0.00 0.00 1025.3
20211017035502 -17 65 4.8 6.4 0.00 0.00 0.00 1025.3
20211017035002 -17 71 3.2 4.8 0.00 0.00 0.00 1025.3
20211017034501 -17 52 4.8 4.8 0.00 0.00 0.00 1025.2
20211017034002 -17 36 0.0 0.0 0.00 0.00 0.00 1025.3
20211017033502 -17 59 1.6 3.2 0.00 0.00 0.00 1025.3
20211017033002 -17 96 0.0 0.0 0.00 0.00 0.00 1025.4
20211017032502 -17 24 1.6 3.2 0.00 0.00 0.00 1025.5
20211017032002 -17 99 0.0 0.0 0.00 0.00 0.00 1025.4
20211017031502 -17 95 0.0 0.0 0.00 0.00 0.00 1025.3
20211017031002 -17 91 0.0 0.0 0.00 0.00 0.00 1025.4
20211017030502 -17 84 0.0 0.0 0.00 0.00 0.00 1025.3
20211017030002 -17 89 0.0 0.0 0.00 0.00 0.00 1025.3
20211017025503 -17 86 0.0 0.0 0.00 0.00 0.00 1025.3
20211017025002 -17 89 0.0 0.0 0.00 0.00 0.00 1025.1
20211017024003 -17 101 0.0 0.0 0.00 0.00 0.00 1025.0
20211017023002 -17 98 0.0 0.0 0.00 0.00 0.00 1025.0
20211017022502 -17 100 0.0 0.0 0.00 0.00 0.00 1025.0
20211017022001 -17 92 0.0 0.0 0.00 0.00 0.00 1024.9
20211017021502 -17 103 0.0 0.0 0.00 0.00 0.00 1025.2
20211017021003 -17 100 0.0 0.0 0.00 0.00 0.00 1025.2
20211017020502 -17 92 0.0 0.0 0.00 0.00 0.00 1024.8
20211017020002 -17 97 1.6 3.2 0.00 0.00 0.00 1025.1
20211017015502 -17 62 1.6 3.2 0.00 0.00 0.00 1024.6
20211017015002 -17 99 0.0 0.0 0.00 0.00 0.00 1024.8
20211017014502 -17 89 1.6 3.2 0.00 0.00 0.00 1024.9
20211017014002 -17 49 1.6 3.2 0.00 0.00 0.00 1024.8
20211017013502 -17 121 0.0 0.0 0.00 0.00 0.00 1024.6
20211017013002 -17 87 1.6 3.2 0.00 0.00 0.00 1024.7
20211017012502 -17 23 1.6 3.2 0.00 0.00 0.00 1024.7
20211017012003 -17 36 1.6 3.2 0.00 0.00 0.00 1024.5
20211017011502 -17 98 0.0 0.0 0.00 0.00 0.00 1024.6
20211017011002 -17 350 4.8 6.4 0.00 0.00 0.00 1024.5
20211017010502 -17 350 3.2 4.8 0.00 0.00 0.00 1024.6
20211017010002 -17 49 3.2 3.2 0.00 0.00 0.00 1024.6
20211017005502 -17 93 1.6 3.2 0.00 0.00 0.00 1024.7
20211017005002 -17 87 1.6 3.2 0.00 0.00 0.00 1024.3
20211017004502 -17 34 4.8 4.8 0.00 0.00 0.00 1024.5
20211017004002 -17 16 4.8 6.4 0.00 0.00 0.00 1024.6
20211017003502 -17 33 3.2 4.8 0.00 0.00 0.00 1024.3
20211017003002 -17 85 3.2 3.2 0.00 0.00 0.00 1024.2
20211017002502 -17 5 3.2 4.8 0.00 0.00 0.00 1024.2
20211017002002 -17 328 6.4 8.0 0.00 0.00 0.00 1024.1
20211017001502 -17 31 8.0 11.3 0.00 0.00 0.00 1024.0
20211017001002 -17 336 4.8 6.4 0.00 0.00 0.00 1024.1
20211017000502 -17 312 6.4 6.4 0.00 0.00 0.00 1024.2
20211017000003 -17 14 8.0 11.3 0.00 0.00 0.00 1024.0
20211016235502 -17 49 4.8 6.4 0.00 0.00 0.00 1024.0
20211016235001 -17 325 9.7 11.3 0.00 0.00 0.00 1023.9
20211016234502 -17 41 4.8 8.0 0.00 0.00 0.00 1023.6
20211016234002 -17 345 8.0 11.3 0.00 0.00 0.00 1023.9
20211016233502 -17 5 4.8 6.4 0.00 0.00 0.00 1023.9
20211016233002 -17 83 6.4 9.7 0.00 0.00 0.00 1024.2
20211016232502 -17 333 4.8 8.0 0.00 0.00 0.00 1023.9
20211016232002 -17 34 9.7 9.7 0.00 0.00 0.00 1024.0
20211016231502 -17 332 8.0 11.3 0.00 0.00 0.00 1023.8
20211016230502 -17 52 6.4 9.7 0.00 0.00 0.00 1023.8
20211016230002 -17 91 1.6 3.2 0.00 0.00 0.00 1023.9
20211016225503 -17 44 8.0 11.3 0.00 0.00 0.00 1023.9
20211016225002 -17 55 6.4 11.3 0.00 0.00 0.00 1023.6
20211016224502 -17 333 11.3 16.1 0.00 0.00 0.00 1023.7
20211016224003 -17 3 4.8 8.0 0.00 0.00 0.00 1023.8
20211016223502 -17 249 6.4 11.3 0.00 0.00 0.00 1023.5
20211016223002 -17 348 4.8 6.4 0.00 0.00 0.00 1023.4
20211016222502 -17 88 4.8 9.7 0.00 0.00 0.00 1023.6
20211016222002 -17 55 6.4 8.0 0.00 0.00 0.00 1023.6
20211016221502 -17 356 11.3 16.1 0.00 0.00 0.00 1023.5
20211016221002 -17 6 8.0 9.7 0.00 0.00 0.00 1023.5
20211016220502 -17 25 9.7 14.5 0.00 0.00 0.00 1023.4
20211016220003 -17 331 3.2 4.8 0.00 0.00 0.00 1023.6
20211016215502 -17 358 8.0 14.5 0.00 0.00 0.00 1023.6
20211016215002 -17 324 8.0 11.3 0.00 0.00 0.00 1023.5
20211016214502 -17 297 11.3 14.5 0.00 0.00 0.00 1023.4
20211016214002 -17 48 6.4 8.0 0.00 0.00 0.00 1023.4
20211016213502 -17 353 11.3 16.1 0.00 0.00 0.00 1023.4
20211016213002 -17 314 14.5 20.9 0.00 0.00 0.00 1023.5
20211016212502 -17 340 12.9 16.1 0.00 0.00 0.00 1023.6
20211016212002 -17 335 11.3 16.1 0.00 0.00 0.00 1023.8
20211016210002 -17 1 14.5 17.7 0.00 0.00 0.00 1023.3
20211016205502 -17 3 6.4 9.7 0.00 0.00 0.00 1023.3
20211016205002 -17 39 12.9 16.1 0.00 0.00 0.00 1023.6
20211016204502 -17 61 4.8 6.4 0.00 0.00 0.00 1023.4
20211016204002 -17 43 3.2 6.4 0.00 0.00 0.00 1023.5
20211016203502 -17 5 12.9 16.1 0.00 0.00 0.00 1023.5
20211016202502 -17 324 11.3 11.3 0.00 0.00 0.00 1023.7
20211016202002 -17 352 20.9 24.1 0.00 0.00 0.00 1023.6
20211016201502 -17 59 6.4 6.4 0.00 0.00 0.00 1023.7
20211016201002 -17 77 8.0 11.3 0.00 0.00 0.00 1023.7
20211016200502 -17 1 12.9 17.7 0.00 0.00 0.00 1023.8
20211016200002 -17 34 6.4 8.0 0.00 0.00 0.00 1023.8
20211016195502 -17 352 8.0 11.3 0.00 0.00 0.00 1023.6
20211016195002 -17 7 11.3 17.7 0.00 0.00 0.00 1023.8
20211016194502 -17 330 4.8 6.4 0.00 0.00 0.00 1023.6
20211016194002 -17 48 8.0 9.7 0.00 0.00 0.00 1023.8
20211016193502 -17 301 3.2 4.8 0.00 0.00 0.00 1023.8
20211016193003 -17 303 19.3 30.6 0.00 0.00 0.00 1023.5
20211016192502 -17 345 12.9 17.7 0.00 0.00 0.00 1023.7
20211016192002 -17 341 14.5 17.7 0.00 0.00 0.00 1023.8
20211016191502 -17 22 9.7 11.3 0.00 0.00 0.00 1023.7
20211016191002 -17 5 11.3 14.5 0.00 0.00 0.00 1023.9
20211016190502 -17 325 12.9 16.1 0.00 0.00 0.00 1024.0
20211016190002 -17 49 14.5 17.7 0.00 0.00 0.00 1024.2
20211016185502 -17 3 9.7 14.5 0.00 0.00 0.00 1024.2
20211016185002 -17 43 6.4 8.0 0.00 0.00 0.00 1024.1
20211016184502 -17 327 11.3 16.1 0.00 0.00 0.00 1024.5
20211016184002 -17 331 20.9 29.0 0.00 0.00 0.00 1024.4
20211016183502 -17 42 11.3 16.1 0.00 0.00 0.00 1024.6
20211016183002 -17 5 14.5 20.9 0.00 0.00 0.00 1024.5
20211016182502 -17 111 6.4 9.7 0.00 0.00 0.00 1024.6
20211016182002 -17 59 8.0 11.3 0.00 0.00 0.00 1024.8
20211016181502 -17 339 11.3 16.1 0.00 0.00 0.00 1024.8
20211016181002 -17 14 8.0 11.3 0.00 0.00 0.00 1024.9
20211016180502 -17 24 9.7 11.3 0.00 0.00 0.00 1025.1
20211016180002 -17 8 16.1 22.5 0.00 0.00 0.00 1025.2
20211016175503 -17 6 12.9 17.7 0.00 0.00 0.00 1025.1
20211016175002 -17 335 9.7 14.5 0.00 0.00 0.00 1025.3
20211016174502 -17 87 9.7 14.5 0.00 0.00 0.00 1025.3
20211016174002 -17 45 14.5 17.7 0.00 0.00 0.00 1025.3
20211016173502 -17 327 11.3 19.3 0.00 0.00 0.00 1025.5
20211016173002 -17 344 14.5 19.3 0.00 0.00 0.00 1025.3
20211016172502 -17 2 12.9 19.3 0.00 0.00 0.00 1025.3
20211016172002 -17 8 11.3 19.3 0.00 0.00 0.00 1025.4
20211016171502 -17 9 6.4 11.3 0.00 0.00 0.00 1025.4
20211016171002 -17 2 14.5 22.5 0.00 0.00 0.00 1025.8
20211016170502 -17 334 11.3 14.5 0.00 0.00 0.00 1025.7
20211016170002 -17 49 11.3 17.7 0.00 0.00 0.00 1025.6
20211016165502 -17 43 8.0 9.7 0.00 0.00 0.00 1025.7
20211016165002 -17 16 6.4 11.3 0.00 0.00 0.00 1025.8
20211016164503 -17 352 11.3 17.7 0.00 0.00 0.00 1025.6
20211016164002 -17 41 8.0 14.5 0.00 0.00 0.00 1025.8
20211016161503 -17 59 9.7 14.5 0.00 0.00 0.00 1025.8
20211016161001 -17 356 14.5 17.7 0.00 0.00 0.00 1025.9
20211016160501 -17 6 14.5 17.7 0.00 0.00 0.00 1025.6
20211016160002 -17 23 17.7 24.1 0.00 0.00 0.00 1025.9
20211016155502 -17 23 16.1 22.5 0.00 0.00 0.00 1026.0
20211016155002 -17 56 9.7 14.5 0.00 0.00 0.00 1025.9
20211016154502 -17 338 9.7 14.5 0.00 0.00 0.00 1025.9
20211016154002 -17 307 11.3 17.7 0.00 0.00 0.00 1025.9